Wind_Speed
11 11 11 11 11 11 11 11 10 10 10 10 10 10 10 11 11 11 11 11 12 12 12 12 13 13 11 8 7 7 7 8 8 8 10 12 12 11 10 6 6 10 10 8 8 8 5 3 5 4 3 2 2 1 0 1 2 2 3 2 3 3 4 6 7 6 3 4 5 5 1 5 5 5 2 2 2 4 4 5 5 6 5 3 3 4 3 17
11 12 12 12 12 12 12 12 12 11 11 10 10 10 11 11 11 11 11 12 12 13 13 13 14 15 13 10 8 8 8 8 7 10 12 12 12 12 12 9 8 11 12 10 11 12 7 4 6 5 4 1 1 1 0 1 2 2 3 2 4 6 5 6 7 5 3 4 5 6 2 5 6 4 1 3 7 5 6 7 4 7 9 5 2 3 12 21
12 13 13 13 13 13 13 13 13 12 12 11 11 11 11 11 12 12 12 12 12 13 13 14 14 15 14 11 9 10 9 6 5 7 5 4 4 8 12 12 10 12 12 10 11 12 7 7 11 7 4 0 1 1 1 0 2 2 3 2 6 7 6 6 7 7 7 4 5 7 2 3 6 4 1 3 8 9 9 7 3 7 12 10 4 7 14 19
13 13 13 13 13 13 13 13 14 13 13 12 12 11 11 11 11 12 12 12 12 13 13 13 14 15 13 11 10 10 8 5 3 4 2 4 3 1 10 15 12 12 14 10 8 9 6 8 11 6 4 1 3 1 1 3 3 2 4 5 7 4 4 8 8 9 8 3 4 5 2 4 6 3 3 3 6 12 11 8 10 12 13 12 6 8 14 17
13 14 14 14 13 13 14 14 14 14 14 13 12 12 12 12 11 12 12 12 12 13 13 14 14 14 13 9 8 8 6 5 2 4 2 3 4 3 6 13 14 13 14 11 7 8 7 8 8 4 3 2 1 2 3 6 4 2 5 8 7 5 4 9 7 7 5 2 3 3 5 6 4 2 5 5 6 14 8 7 13 14 13 11 9 10 12 13
13 14 14 14 14 13 14 14 14 15 15 14 14 13 13 12 12 12 12 12 12 12 13 13 14 14 12 7 5 5 3 1 4 3 4 6 4 3 5 11 14 13 14 12 7 8 6 6 5 2 2 1 3 4 5 4 4 3 6 6 7 7 7 7 3 5 3 1 4 4 5 3 4 7 6 8 13 19 11 5 11 11 12 10 8 10 11 13
14 15 14 15 14 14 14 14 14 15 15 15 15 14 14 14 13 13 12 12 12 12 12 12 13 13 10 6 4 4 3 5 10 7 9 8 5 4 6 11 14 14 14 12 8 7 5 5 4 4 3 1 4 6 5 2 3 5 6 5 6 7 9 9 5 5 3 5 8 2 5 5 7 8 1 6 17 21 14 6 9 10 8 6 7 11 14 15
16 15 15 15 14 14 14 14 14 15 15 15 15 15 15 15 14 14 13 13 13 12 12 11 12 11 9 4 1 4 1 9 14 11 9 7 6 5 7 11 14 15 15 16 13 8 5 6 6 4 2 4 4 4 4 2 1 6 8 5 4 4 8 10 7 7 6 7 6 2 8 12 11 5 5 14 22 19 12 9 10 9 6 7 9 12 13 14
16 15 15 14 14 14 14 14 14 15 15 15 15 15 15 15 15 14 14 14 14 13 12 12 11 10 8 1 3 3 5 8 10 9 7 7 7 6 9 11 14 17 15 15 14 10 6 6 7 5 4 4 4 4 3 3 4 7 8 5 4 6 8 8 7 7 7 6 4 3 12 15 7 2 9 19 22 17 8 8 9 7 8 8 9 11 12 13
14 15 15 15 14 15 15 15 15 15 15 15 15 15 15 15 15 14 14 15 15 14 13 12 10 8 5 1 2 4 7 6 7 8 8 8 8 8 12 12 14 17 14 10 12 12 7 7 7 5 4 2 3 3 3 5 4 5 5 6 7 8 8 6 6 6 4 5 7 7 14 15 4 2 9 17 12 5 5 6 6 5 9 10 9 9 10 12
13 14 16 16 15 15 16 15 15 15 15 15 16 16 15 16 15 15 15 15 15 14 14 12 9 8 5 2 3 6 8 7 9 9 9 11 11 11 13 14 14 17 14 7 11 14 9 7 6 5 2 2 2 2 3 5 2 2 2 7 9 7 9 8 8 6 3 5 8 11 11 11 4 2 13 19 9 2 6 10 8 5 9 10 9 9 8 10
13 14 15 14 15 16 16 15 15 15 16 16 17 17 17 17 16 16 16 16 15 14 13 12 9 6 3 1 7 14 16 14 14 13 14 14 13 12 12 14 14 14 14 7 7 11 10 6 6 4 4 2 0 2 4 3 1 3 2 6 12 7 10 13 8 4 6 4 6 9 5 8 4 10 18 20 11 3 6 11 12 9 9 9 9 8 8 10
13 14 14 13 15 16 16 15 15 15 17 17 18 19 18 18 17 17 17 16 15 14 13 11 8 5 2 3 8 15 21 21 20 20 19 17 14 13 12 13 13 11 12 8 4 4 6 7 6 5 3 2 3 2 0 3 3 5 2 1 9 7 9 9 2 2 3 4 5 7 4 8 9 17 19 14 9 6 7 11 13 10 9 8 8 8 9 11
12 13 13 13 15 16 15 15 16 17 18 19 20 20 20 19 17 17 17 17 14 12 10 7 5 4 3 6 8 9 15 19 21 23 22 20 15 12 12 12 11 11 9 7 4 1 2 5 5 2 1 3 3 3 3 5 4 4 3 1 3 3 8 6 4 2 3 4 7 6 5 10 12 18 17 10 7 7 8 13 12 11 10 9 8 8 10 11
12 13 12 13 14 14 15 16 17 18 19 19 20 20 20 19 18 17 17 16 13 10 7 3 5 6 2 8 10 8 12 15 19 25 24 21 17 10 9 11 10 8 7 5 4 3 4 5 4 2 2 1 1 3 4 4 3 2 2 4 2 2 7 11 5 5 8 5 5 7 6 9 12 17 15 7 5 7 9 13 12 11 11 10 9 7 9 10
11 11 11 11 12 13 15 17 19 17 18 20 20 19 19 18 18 16 16 14 11 8 4 3 8 6 1 6 6 7 11 13 15 19 20 21 18 10 7 9 7 5 5 4 5 5 6 5 2 2 1 2 1 1 3 4 5 2 1 5 4 5 4 9 9 7 9 4 2 7 7 6 9 13 12 5 4 7 8 12 12 12 11 10 9 8 9 10
10 9 10 10 11 13 15 19 18 16 20 22 21 20 16 14 13 11 9 5 2 5 5 3 6 4 2 5 5 7 9 13 14 13 14 18 17 12 9 6 5 7 7 5 6 5 2 2 1 0 1 2 2 5 3 3 6 3 2 4 5 7 5 4 9 6 3 5 6 7 8 10 12 12 12 8 5 6 7 11 13 11 10 9 8 9 10 11
8 8 9 10 11 14 16 19 18 17 23 23 21 18 10 6 5 1 4 9 10 8 4 1 4 2 5 7 7 7 4 7 10 8 10 13 13 12 9 6 6 9 8 4 2 3 1 2 2 1 2 2 2 5 3 6 8 7 5 5 4 5 7 6 8 6 3 5 6 4 9 15 16 14 15 14 10 9 10 12 13 12 12 12 10 11 12 12
7 8 9 10 12 14 15 19 19 18 23 23 19 11 3 5 5 7 9 10 8 5 1 3 5 3 5 8 8 7 3 3 4 5 8 10 11 11 7 6 7 7 5 1 1 3 2 3 4 2 4 7 6 7 10 14 14 11 7 6 6 6 7 8 10 9 5 9 7 7 13 16 15 15 15 17 14 12 14 14 13 13 12 13 12 13 14 15
7 8 9 10 12 14 16 19 19 19 22 23 18 8 1 4 4 3 2 1 4 5 3 5 8 4 4 4 3 4 4 4 3 3 8 10 13 11 5 4 6 4 3 5 3 2 3 3 4 6 11 13 11 12 16 17 11 6 4 6 8 8 10 9 11 12 3 5 9 9 16 17 15 15 15 17 14 13 17 18 16 15 13 13 14 16 16 16
9 9 10 11 12 13 15 18 18 18 19 18 16 7 2 1 1 3 4 4 10 12 8 9 11 10 12 8 3 2 1 2 3 2 9 11 13 11 2 2 5 2 3 4 2 1 2 6 8 13 17 13 10 12 13 11 6 6 6 7 8 7 13 12 12 14 3 2 8 7 15 19 15 16 15 14 14 15 18 19 20 18 15 13 14 19 19 16
10 10 10 11 12 13 15 17 16 17 17 14 14 7 3 1 2 3 1 4 10 10 10 12 10 11 17 19 12 3 1 4 4 1 9 9 7 6 3 4 6 4 3 4 1 1 3 6 12 17 13 5 4 5 5 6 7 7 5 6 8 5 10 12 11 13 4 2 8 8 14 18 14 15 14 14 16 16 16 18 20 19 17 15 15 18 18 16
12 11 11 11 12 12 13 16 14 15 15 11 11 5 0 3 2 2 1 2 8 6 6 9 8 8 13 18 14 7 4 7 6 4 11 10 3 4 4 5 5 3 4 6 7 7 5 6 13 15 8 4 7 4 4 4 5 6 6 6 8 5 6 9 6 6 3 3 7 9 14 15 11 14 14 16 19 16 15 18 18 18 18 19 19 17 16 18
13 12 12 12 12 12 12 15 12 12 13 7 7 6 3 2 2 1 1 2 5 6 7 7 6 6 9 9 6 9 7 6 4 4 12 13 4 2 4 5 5 3 6 11 12 11 9 7 8 9 7 8 10 7 5 5 6 8 9 7 10 10 11 11 5 6 5 4 6 8 14 13 8 12 12 12 14 13 13 16 17 18 19 20 19 17 15 18
14 14 13 12 12 12 13 13 8 9 11 3 5 8 4 2 2 1 1 2 3 6 6 4 3 4 6 3 5 8 4 3 4 4 13 15 8 3 3 3 4 5 9 11 10 11 11 6 4 6 7 9 9 8 7 7 9 9 7 12 17 16 13 12 8 7 6 4 5 3 8 11 5 11 11 8 7 9 10 13 16 19 20 16 14 16 15 16
15 15 14 13 12 12 12 8 4 8 9 2 4 8 4 2 2 1 1 2 4 5 2 2 3 2 3 3 4 5 3 3 4 2 9 11 8 5 2 2 1 5 8 6 4 5 6 5 6 8 8 8 7 7 8 10 9 9 6 13 17 13 9 11 8 4 2 4 4 2 1 10 7 7 10 8 6 10 10 11 15 19 16 10 10 14 14 13
15 15 14 13 11 10 7 3 5 7 4 2 5 7 5 3 1 2 1 3 5 3 2 1 0 2 2 2 3 5 3 4 3 3 2 2 3 1 2 4 2 2 4 2 2 3 4 3 5 8 7 6 6 7 9 11 8 8 5 9 11 9 8 7 5 4 4 3 4 1 5 6 13 6 9 10 9 11 12 13 16 16 13 11 12 13 13 13
15 15 14 14 14 12 9 7 7 5 1 3 6 7 5 3 0 1 3 3 5 1 2 2 0 2 0 0 2 4 3 2 3 1 2 2 1 1 2 6 6 4 3 5 5 4 4 5 7 7 5 5 8 8 7 12 8 6 2 5 7 6 5 5 5 5 1 4 4 4 4 1 13 8 3 5 8 9 13 16 16 14 12 13 13 13 12 14
16 14 13 15 15 13 11 11 8 5 3 4 6 7 5 2 1 4 3 3 3 1 1 1 1 1 3 1 1 2 1 1 2 3 3 2 1 2 2 6 6 5 4 6 8 6 2 5 7 8 6 7 8 5 7 12 9 4 6 5 4 4 3 5 3 3 2 5 5 5 4 2 11 9 3 2 3 8 12 12 12 11 11 13 13 12 11 11
17 14 12 13 13 11 8 11 14 10 7 5 5 6 3 1 1 2 3 5 2 1 1 1 0 1 3 3 1 3 1 2 0 2 3 1 2 4 1 3 4 3 4 3 7 9 4 1 3 5 5 6 4 2 3 8 5 2 5 5 6 5 4 4 1 3 3 7 6 10 11 6 7 6 4 3 4 6 7 7 8 9 11 14 12 11 12 11
16 15 12 12 14 12 6 6 12 12 11 8 4 3 2 2 2 3 7 2 2 3 0 1 2 2 4 3 2 2 1 2 0 2 0 1 2 4 1 1 2 2 3 4 7 7 4 2 3 3 3 4 5 4 2 1 3 3 3 3 3 4 4 5 4 4 2 8 6 11 12 8 8 6 2 4 7 4 6 6 8 10 11 12 10 9 10 10
13 14 14 14 15 16 11 5 4 5 10 9 1 2 1 2 1 6 5 3 2 3 1 0 1 3 3 2 1 2 1 2 1 4 3 2 2 2 3 4 4 1 4 4 4 5 3 6 5 2 2 5 6 3 3 5 3 4 3 3 0 4 3 3 3 1 4 8 5 7 7 5 12 9 3 8 11 9 9 8 9 10 10 11 10 8 8 9
10 12 14 16 17 18 17 12 7 4 7 7 2 3 4 1 5 5 2 1 2 1 2 1 0 3 3 1 3 3 1 2 2 2 2 3 2 4 5 5 5 2 5 3 2 4 4 4 2 3 3 5 8 6 3 2 4 6 5 5 4 2 2 4 4 2 5 7 2 3 4 4 10 7 7 12 13 11 8 8 10 10 9 10 9 8 9 11
9 10 12 15 17 19 18 17 15 11 8 7 3 3 3 6 7 2 3 5 4 3 2 2 2 2 2 2 4 3 2 3 3 3 1 2 1 4 4 5 5 3 2 2 2 2 4 7 4 7 3 6 11 11 8 5 5 7 6 6 5 5 4 4 4 5 7 5 2 1 4 4 4 3 6 10 9 7 6 7 7 7 8 9 9 8 10 11
9 9 10 12 15 17 18 20 18 14 10 6 3 2 5 8 6 1 4 5 2 4 4 1 2 1 3 4 3 2 4 4 2 4 2 2 2 3 3 5 6 5 3 3 2 2 4 9 6 3 1 8 9 8 6 7 2 4 4 4 4 6 6 4 6 7 4 3 3 3 4 5 5 6 8 8 8 9 9 7 6 8 8 6 7 9 8 9
10 10 10 10 14 16 18 21 20 16 12 6 2 6 8 7 4 3 4 3 2 2 2 4 1 2 4 3 2 2 2 3 0 1 2 2 2 4 4 4 6 8 7 5 2 1 3 7 4 2 3 3 3 3 2 3 2 2 3 3 4 4 6 5 7 2 1 4 6 5 7 6 4 9 8 3 5 8 8 8 7 8 8 6 6 8 8 8
10 9 8 10 14 15 16 20 21 19 11 4 4 8 6 5 5 5 3 2 2 3 3 3 3 3 3 2 2 2 1 1 1 1 1 2 2 3 4 4 3 9 10 3 1 2 2 6 4 2 1 4 1 1 2 1 2 5 4 5 1 3 2 2 2 1 2 9 6 6 14 10 4 8 6 6 7 7 6 6 6 6 6 7 7 6 7 8
9 7 8 13 18 17 15 19 22 17 7 3 9 10 5 3 4 4 4 3 1 2 3 5 4 2 4 4 4 3 3 2 2 3 1 2 3 4 4 3 2 6 9 4 1 2 1 4 7 1 2 4 3 1 3 4 2 5 3 3 2 1 2 1 2 3 6 10 6 7 15 12 7 9 7 7 9 9 6 5 6 6 5 7 8 8 8 8
5 3 5 9 14 17 18 20 20 11 3 4 10 10 4 4 4 3 4 3 2 2 3 5 4 3 4 5 4 3 4 4 4 3 3 3 4 3 4 2 2 3 4 5 5 2 2 1 7 2 2 2 4 1 2 2 2 1 1 3 1 3 3 3 3 2 5 10 8 8 10 8 7 7 6 7 9 8 5 3 5 6 6 6 7 8 9 8
1 1 4 3 5 14 21 20 14 6 4 6 9 7 3 3 4 4 5 5 2 2 4 5 5 5 5 5 6 4 4 5 5 4 4 4 4 3 2 2 3 3 1 4 4 2 2 2 5 4 3 3 2 3 5 4 2 1 2 3 3 2 1 2 2 2 3 7 7 7 8 7 5 5 6 7 7 6 6 3 5 7 8 9 9 10 11 10
1 1 4 3 4 16 21 13 6 4 5 5 8 8 4 3 3 3 5 5 4 3 2 3 5 6 5 5 5 3 2 3 5 5 4 4 5 5 4 4 6 5 3 3 2 3 1 2 2 2 4 6 7 6 7 6 5 4 4 4 5 5 4 5 6 4 3 5 6 8 9 6 4 7 8 6 5 6 6 4 7 9 10 12 13 13 13 11
3 3 2 3 10 24 18 6 4 4 4 5 6 5 4 3 3 3 4 4 4 3 1 3 6 5 5 6 6 4 3 4 5 5 5 6 8 8 5 5 7 5 3 1 4 4 3 3 3 5 7 10 15 11 7 8 6 5 5 5 6 6 5 7 9 7 5 6 6 8 10 6 4 10 12 7 5 6 6 6 7 8 9 10 11 11 11 10
3 3 4 4 16 25 10 3 7 4 5 4 2 2 2 2 3 3 4 5 4 4 3 3 5 6 6 6 7 5 5 5 6 7 6 5 8 9 8 7 5 3 1 2 4 2 3 3 3 8 6 7 13 14 9 7 6 5 6 8 10 10 11 11 9 5 6 8 7 8 10 5 5 8 12 12 12 11 10 8 7 7 8 8 10 11 10 10
2 3 4 5 16 20 5 4 8 6 6 4 4 5 3 2 4 5 5 5 4 4 4 4 4 6 7 6 7 7 6 6 7 9 8 5 5 9 10 10 8 4 4 5 4 3 2 3 4 6 6 6 7 8 8 4 4 5 7 9 12 14 15 12 5 3 6 10 11 11 10 6 4 6 9 13 17 17 17 14 10 9 10 10 9 8 9 10
3 2 2 5 11 10 3 4 6 5 7 8 9 9 6 4 5 8 8 6 5 5 3 4 3 3 4 4 5 6 6 7 7 6 5 4 4 4 5 7 9 7 6 5 3 2 4 5 5 5 8 10 10 8 5 2 3 3 5 9 12 14 15 11 6 6 8 10 12 12 10 8 7 7 9 14 18 21 22 21 18 12 9 9 8 7 8 8
2 3 1 2 5 5 4 4 3 4 5 7 8 8 11 11 6 4 7 6 7 7 4 4 2 1 3 3 5 7 7 8 7 5 5 5 3 1 4 5 4 5 6 5 2 1 1 4 8 11 12 12 13 12 6 2 3 3 4 8 10 11 13 10 7 8 9 9 11 12 12 13 12 11 14 18 19 21 23 25 23 14 7 8 7 5 6 7
1 2 1 1 2 4 5 5 4 4 4 5 4 4 9 13 8 4 6 5 6 7 5 4 5 6 6 5 7 8 8 9 9 9 9 6 2 3 6 5 3 5 6 5 2 1 1 4 10 16 17 16 16 17 15 13 13 11 10 10 10 9 9 9 10 12 11 11 13 11 13 17 14 12 16 19 19 20 21 22 23 16 9 8 7 10 11 11
1 1 2 2 2 3 4 3 3 4 5 6 5 5 9 10 8 5 3 2 2 4 3 4 6 11 11 9 8 6 6 8 8 5 4 2 3 6 7 3 2 7 8 5 3 0 2 4 8 13 17 17 17 19 19 19 17 15 14 13 14 15 15 15 18 18 15 14 16 14 16 20 15 12 16 18 19 20 19 17 16 14 13 12 13 13 13 13
1 1 3 3 2 3 4 4 5 4 5 6 4 7 11 13 13 9 2 1 2 2 6 8 5 5 5 5 5 3 4 6 4 1 2 3 2 3 4 3 1 5 7 6 5 1 3 3 5 10 14 15 16 18 19 18 16 15 14 15 17 19 21 23 23 21 19 19 19 18 22 23 17 15 16 13 12 12 12 12 13 14 14 13 14 13 13 13
1 0 2 3 2 3 3 3 4 4 4 4 4 6 8 10 12 8 2 3 3 3 5 7 2 2 2 1 1 3 2 1 2 1 2 3 2 1 1 3 3 4 5 4 2 3 3 3 5 7 9 10 11 13 14 15 15 16 16 17 18 20 23 23 21 18 18 20 20 22 23 18 11 11 10 9 12 13 13 14 13 12 11 12 13 12 12 12
2 2 2 3 4 3 1 1 2 3 4 4 4 4 5 7 7 4 2 2 2 1 1 1 2 1 2 2 2 3 2 3 1 3 1 1 2 1 1 2 3 6 7 4 2 2 3 3 6 7 7 8 9 10 11 11 14 16 17 18 20 20 19 17 16 16 16 18 20 20 15 8 7 11 10 11 13 14 13 12 11 10 11 11 11 11 11 11
2 3 1 1 3 4 2 1 2 3 4 3 1 3 3 3 4 4 3 1 4 5 5 5 3 2 1 1 1 3 4 2 4 5 4 5 7 6 6 7 6 6 5 5 3 3 3 4 5 6 7 8 10 12 11 10 12 13 11 13 18 19 18 15 13 13 10 9 9 7 3 3 7 10 11 12 13 13 11 8 8 10 10 11 11 10 10 10
Wind_Direction
351 350 348 349 348 348 349 348 350 350 351 350 350 349 346 347 345 346 345 345 344 344 347 345 346 347 342 337 327 315 305 293 281 258 240 261 267 249 242 232 205 203 206 201 187 174 158 180 190 161 129 100 12 7 58 41 93 64 90 142 245 204 203 194 193 202 195 269 273 308 280 184 268 296 302 339 282 262 266 268 273 282 264 226 274 308 160 164
345 344 344 345 344 344 343 343 344 343 345 344 344 344 342 343 340 340 339 340 339 337 343 342 344 346 344 340 329 323 311 299 287 264 260 275 272 250 235 219 207 204 199 196 197 179 156 201 187 128 81 94 326 5 22 280 138 125 127 187 236 206 215 203 193 209 208 247 268 293 283 184 233 265 27 289 271 282 270 271 298 281 268 260 269 163 163 165
341 341 341 341 340 340 339 339 337 336 338 338 339 340 339 339 336 335 334 335 335 334 337 339 340 344 345 339 336 334 318 318 303 268 278 320 272 240 222 210 205 203 203 205 207 195 185 192 169 127 69 24 288 31 59 264 188 170 143 227 245 217 237 240 214 224 230 253 292 290 277 182 239 245 114 256 276 278 252 246 238 250 255 246 211 160 170 171
338 337 336 336 336 336 336 334 332 331 332 332 333 335 335 335 333 331 330 329 330 330 330 334 336 340 343 337 341 334 327 357 305 229 104 49 37 243 213 208 202 200 206 211 210 206 190 150 148 116 83 228 310 23 178 222 204 173 161 213 236 197 238 249 219 232 248 240 250 273 335 288 259 207 194 247 296 283 253 215 215 226 240 234 198 181 181 179
333 331 331 331 332 332 332 330 328 328 327 327 328 328 329 328 328 326 325 324 324 324 325 328 330 337 341 337 347 341 356 26 273 190 123 2 7 350 210 200 200 200 203 210 202 184 168 128 119 71 86 195 295 66 232 220 153 164 215 226 226 169 231 253 216 226 240 185 226 279 301 282 268 217 214 205 241 267 259 186 211 222 231 225 190 187 186 186
327 326 327 327 328 328 327 327 326 325 324 324 323 323 323 321 322 320 319 317 317 317 317 319 323 332 335 332 348 355 27 316 259 232 287 305 323 308 198 191 199 204 206 210 189 166 165 121 114 127 129 204 198 192 241 221 150 219 251 246 236 205 229 261 220 216 204 197 260 259 278 293 308 286 221 189 228 253 263 192 206 223 230 221 173 171 185 195
324 324 326 325 327 326 326 325 324 323 321 321 320 319 317 317 317 315 314 311 310 309 308 310 313 322 330 329 331 7 82 249 272 285 290 290 290 267 199 195 198 206 207 202 183 165 149 124 161 169 133 257 218 211 232 195 170 230 255 257 247 222 229 256 261 260 262 253 255 265 322 295 265 281 251 216 245 253 264 249 224 235 230 199 162 178 192 198
324 325 327 328 328 329 329 325 322 320 320 319 318 317 315 315 315 313 312 307 305 305 302 301 304 311 317 316 317 357 12 256 275 287 288 283 272 244 209 199 198 206 205 203 195 175 149 148 189 168 142 248 201 192 208 153 206 225 235 245 253 240 239 259 270 267 262 252 250 290 294 265 240 264 301 263 262 266 265 255 244 238 220 189 191 198 199 205
326 326 329 330 330 330 331 328 324 320 319 319 316 316 315 314 314 314 310 305 304 301 298 296 298 305 304 312 89 343 272 255 278 289 287 281 266 237 213 203 202 205 204 212 205 181 172 184 207 195 203 231 173 193 201 180 244 221 225 250 261 270 268 270 269 247 239 242 198 219 271 269 252 240 274 260 261 277 275 254 252 229 221 214 212 207 201 210
326 329 331 331 333 333 334 332 327 322 320 319 317 315 313 314 314 312 309 304 302 300 295 288 286 293 287 221 100 279 264 260 281 282 282 279 263 237 218 211 208 206 203 213 206 191 188 198 201 182 191 197 174 210 173 174 217 202 218 265 256 270 281 253 251 242 223 246 194 200 260 272 293 146 264 263 250 296 320 282 275 223 231 230 222 218 209 214
327 332 333 334 338 336 336 333 326 323 321 320 316 313 311 312 312 310 307 302 301 302 296 286 279 274 259 187 181 250 264 268 273 273 277 277 262 245 231 223 218 211 205 202 208 208 211 204 166 129 195 207 190 235 222 203 204 209 253 297 278 294 299 258 252 252 204 256 204 189 253 279 325 182 246 262 252 33 330 293 285 239 239 240 230 229 216 221
329 333 334 338 341 339 338 333 326 322 319 318 312 309 309 309 309 306 302 299 300 302 296 290 280 254 243 194 219 246 260 264 267 269 271 270 257 245 235 228 227 220 213 210 226 223 222 215 155 152 229 194 246 283 246 231 32 300 30 322 294 333 311 275 274 246 179 224 189 157 261 284 255 235 243 255 259 301 298 282 278 257 245 245 238 235 226 231
329 333 338 342 344 343 341 335 330 326 322 318 312 310 308 305 304 300 296 293 295 299 295 291 278 236 207 261 244 249 257 257 260 263 262 259 249 239 230 224 227 225 222 224 245 224 214 219 188 195 218 163 257 255 154 30 15 297 21 349 297 338 307 281 29 50 166 191 170 142 273 268 240 249 253 256 260 268 271 267 271 268 260 251 238 235 236 237
329 333 340 345 347 347 346 344 339 333 328 324 321 317 310 304 299 292 289 286 289 295 292 288 259 189 169 258 265 258 253 251 251 252 251 247 236 230 226 219 220 219 223 225 217 168 175 201 175 164 236 173 248 293 348 4 5 302 305 276 307 311 285 300 67 58 279 216 163 154 254 261 257 261 260 262 251 236 251 261 264 268 269 263 246 236 243 241
329 331 338 345 347 348 351 351 344 338 334 331 329 323 314 306 295 286 279 277 282 282 278 258 190 152 97 272 271 269 253 248 248 247 247 242 225 215 218 211 210 212 215 214 202 192 170 159 142 157 261 253 319 321 332 342 354 3 284 281 319 226 272 307 306 205 240 261 138 158 237 261 262 266 267 270 236 209 235 258 262 265 266 268 265 249 250 253
329 331 338 347 349 350 353 352 347 342 340 339 334 326 316 306 294 282 274 273 275 255 226 191 178 152 54 272 280 281 249 239 248 250 244 237 227 213 192 187 187 178 180 181 164 168 163 136 113 159 225 286 218 126 35 351 320 345 231 253 271 253 273 313 300 230 217 244 165 199 234 266 264 265 272 280 237 215 232 259 263 263 265 266 272 268 264 269
331 334 342 348 348 350 354 353 348 344 346 344 337 330 322 310 299 287 276 270 255 180 150 157 169 152 268 273 292 280 242 235 245 250 236 227 222 205 172 146 134 129 119 119 143 150 138 106 104 45 23 283 153 102 57 296 277 290 237 235 247 250 258 296 296 284 206 192 212 229 240 252 260 269 282 290 270 247 242 258 263 262 267 266 266 269 267 269
334 338 342 344 347 350 353 352 348 344 346 346 341 333 332 346 344 7 130 118 102 110 106 45 132 149 265 252 257 259 246 237 236 235 222 211 202 193 171 133 121 120 101 65 128 150 32 30 89 33 328 260 147 117 177 231 239 240 230 244 258 244 246 256 268 286 298 233 213 229 251 252 263 273 282 282 274 270 258 257 264 263 265 266 264 264 262 264
328 333 337 340 345 348 349 352 349 344 345 349 348 337 353 49 57 97 113 114 103 114 176 225 168 164 254 244 249 261 274 218 204 210 194 178 174 171 145 122 111 109 112 85 235 182 128 55 76 114 239 236 203 168 200 223 229 232 228 240 258 257 249 240 250 259 277 278 255 243 257 258 264 268 272 274 272 271 268 264 265 263 262 264 264 261 259 261
315 321 328 334 340 342 346 351 350 349 350 353 354 350 57 30 30 56 45 154 216 208 197 213 207 234 274 267 257 245 253 217 207 195 165 160 156 147 119 87 79 76 139 161 201 209 137 159 167 191 221 225 207 195 212 228 239 250 246 248 250 259 263 250 258 263 243 280 262 240 261 266 263 264 262 269 274 273 272 271 267 262 260 260 261 262 260 258
307 311 319 325 331 336 341 346 350 353 357 3 9 21 114 61 356 315 315 280 254 242 247 239 220 245 260 260 243 185 279 245 236 147 158 165 150 146 164 106 118 166 192 149 151 31 144 193 208 215 223 223 211 210 222 237 261 262 246 262 260 245 262 258 259 269 244 223 259 245 268 270 262 264 262 265 270 264 264 268 270 268 262 259 259 262 262 260
297 300 310 314 323 330 335 343 348 353 359 17 33 58 141 247 246 262 277 287 279 248 243 249 232 247 254 254 254 220 17 271 268 193 166 161 145 172 204 133 159 196 149 115 120 245 217 222 227 227 232 245 242 215 205 227 239 244 241 268 268 245 271 269 250 266 265 190 272 271 268 268 262 262 258 254 257 252 253 257 264 270 268 263 257 260 265 265
288 292 301 303 315 322 327 337 342 351 360 23 42 58 58 323 236 227 147 254 290 264 231 242 227 230 246 256 250 204 227 243 255 250 176 155 141 194 163 145 173 157 135 176 203 216 224 235 234 233 235 245 256 230 161 232 236 221 220 244 262 248 264 266 246 279 294 213 273 287 277 272 258 258 254 244 248 249 251 254 258 263 263 261 256 256 264 266
285 288 293 294 307 312 320 330 333 351 359 21 36 19 357 344 191 181 323 242 283 276 245 228 213 215 231 255 225 186 221 227 224 243 173 155 134 156 168 159 149 143 190 206 214 227 238 237 225 222 213 211 238 240 202 248 258 223 209 218 250 245 239 251 275 339 325 274 280 294 293 284 225 229 249 241 244 248 249 253 259 260 255 256 259 259 259 261
282 283 285 287 297 302 314 323 324 352 352 355 15 2 6 341 222 157 359 315 290 288 280 231 195 227 223 200 160 174 201 223 226 210 170 166 155 144 196 168 153 201 209 211 224 245 251 237 174 178 203 204 218 235 210 212 251 253 211 207 235 246 248 259 292 342 340 308 307 333 308 296 196 189 236 246 242 246 244 245 250 256 255 254 263 265 257 255
272 274 277 280 286 293 307 316 313 342 346 313 338 348 354 324 273 206 78 16 288 273 294 214 175 206 201 146 158 157 139 266 274 148 165 180 174 144 164 184 200 219 199 197 226 250 254 230 188 192 203 195 201 242 221 197 236 271 226 205 227 243 255 261 275 311 282 261 298 73 193 287 281 192 218 232 234 244 245 241 244 251 258 256 256 261 262 259
267 269 271 273 278 283 291 297 298 321 335 298 325 339 344 346 281 234 33 359 293 235 144 252 210 118 169 179 178 146 172 271 349 62 125 182 210 148 174 203 203 222 171 142 278 240 208 213 212 208 192 170 188 240 221 182 206 267 232 195 207 221 236 236 226 223 235 274 299 207 148 271 289 253 193 205 218 242 252 248 247 251 259 260 253 256 264 265
268 272 271 271 273 268 260 267 291 309 300 301 328 334 345 358 287 75 41 313 285 159 113 269 165 102 8 106 105 117 179 282 52 314 330 58 236 75 226 221 185 202 166 141 244 243 155 194 210 188 165 174 206 225 187 158 195 257 168 157 173 187 200 158 161 200 256 336 297 234 144 225 279 278 140 193 218 240 252 247 248 254 261 263 261 260 262 266
267 269 272 273 269 265 256 255 265 273 267 303 334 332 341 339 330 66 76 259 276 59 60 358 146 335 1 96 111 54 26 11 99 275 332 69 236 79 201 223 164 209 233 175 230 259 174 209 195 162 163 210 218 216 163 163 200 227 109 96 80 88 86 100 143 157 69 311 263 201 168 203 278 283 83 89 229 237 249 250 255 260 262 264 266 268 265 265
264 262 270 267 252 247 242 244 254 257 258 281 315 322 333 332 16 72 227 245 328 322 242 59 225 328 67 106 305 336 344 285 8 359 6 76 342 27 165 220 118 183 265 247 250 253 230 187 153 165 188 199 168 91 166 175 186 130 94 55 31 29 31 61 59 85 78 282 242 181 184 182 276 280 136 169 230 218 238 262 271 266 263 265 264 266 268 264
260 257 260 254 240 235 221 239 262 254 241 251 286 325 329 24 73 197 233 242 9 295 120 41 338 47 75 113 264 299 205 275 306 113 130 130 30 28 56 269 74 68 319 294 273 267 243 201 196 212 183 132 110 85 5 41 111 110 87 62 15 332 5 31 353 54 143 263 232 181 182 175 234 257 167 261 270 229 222 238 255 259 261 268 268 267 273 275
260 255 248 247 243 239 231 233 271 244 224 224 219 34 39 36 209 217 246 6 356 268 117 261 293 78 66 51 261 238 181 279 233 142 170 156 150 177 196 203 171 304 298 248 272 307 261 221 207 205 188 154 141 137 351 360 94 121 112 123 210 309 343 351 312 95 204 257 241 177 171 198 244 255 249 265 270 252 231 225 235 245 254 265 275 285 293 297
262 257 247 244 240 235 235 240 244 227 200 181 127 44 85 178 243 209 202 306 244 237 95 125 102 116 122 21 268 232 154 237 198 155 174 136 167 241 249 224 174 208 265 218 305 320 286 274 154 139 254 185 153 167 227 261 169 155 155 159 170 212 248 258 265 273 259 267 277 165 171 250 273 273 234 236 253 260 248 235 234 237 252 269 283 300 298 292
270 263 253 248 242 238 240 241 238 230 196 157 118 57 121 224 248 138 164 226 249 327 27 106 54 57 168 229 244 204 212 247 163 141 194 115 177 257 258 242 199 169 233 230 295 222 253 288 202 169 233 180 174 198 195 150 158 184 164 144 177 191 188 213 228 252 264 274 320 207 186 225 267 281 239 236 262 296 283 257 258 260 262 274 286 289 286 288
285 274 266 256 245 240 236 234 232 219 189 145 118 165 206 235 250 233 218 227 266 308 308 339 72 32 279 263 258 222 222 252 89 105 189 169 201 227 207 224 204 162 150 211 253 167 219 267 242 202 177 158 179 216 173 114 124 218 132 119 223 206 176 215 238 230 244 287 286 229 220 232 245 274 272 262 280 288 276 280 308 297 280 294 302 292 297 308
294 286 277 256 245 238 229 228 224 204 177 138 139 210 226 233 213 198 214 192 179 191 306 311 202 195 273 271 287 294 209 214 57 83 214 212 234 225 214 232 199 183 186 194 227 207 236 272 263 32 15 158 179 272 187 137 211 200 130 186 232 162 154 220 262 247 111 258 247 230 256 273 293 288 290 336 317 291 289 299 297 289 300 324 316 304 311 313
306 300 274 246 246 238 225 224 213 193 172 145 202 220 229 227 194 189 191 179 193 138 118 264 227 180 250 261 271 276 167 189 189 150 225 249 252 204 209 261 200 195 211 202 267 249 248 290 284 123 265 268 237 338 318 354 123 133 174 228 245 63 119 171 259 320 237 248 243 236 258 271 287 280 304 18 342 303 303 314 305 308 324 314 302 302 295 292
321 310 274 256 249 237 226 217 197 178 155 174 227 232 224 216 212 194 173 163 184 114 144 221 231 179 201 235 247 193 175 200 145 152 194 238 238 180 179 245 192 206 227 184 141 293 74 299 296 122 172 289 2 37 308 338 73 137 201 257 103 160 256 154 177 227 235 247 249 229 249 262 253 254 278 301 287 275 282 326 338 334 324 309 311 308 297 301
322 307 277 267 246 229 216 197 178 166 158 198 227 238 213 215 237 203 184 178 152 136 198 225 235 225 208 218 234 217 208 207 169 174 193 202 227 183 153 211 193 228 246 150 163 274 58 245 279 313 107 337 9 80 208 290 340 78 292 320 60 176 201 188 190 196 228 248 254 234 235 249 248 243 254 257 247 245 261 319 323 300 286 289 299 301 306 318
252 262 263 275 227 208 194 177 164 172 207 207 227 232 192 223 250 235 220 215 197 204 228 225 216 228 233 227 233 240 233 210 192 203 208 208 234 225 193 195 173 190 24 93 167 211 73 214 260 303 326 310 302 196 190 203 205 182 258 270 264 227 209 246 237 186 230 253 259 252 242 244 262 266 255 254 245 218 203 222 279 290 299 301 305 310 315 321
193 237 259 292 200 176 168 162 169 198 207 230 239 232 228 234 233 250 239 220 222 238 222 200 206 222 235 243 243 223 205 210 202 205 219 222 231 240 230 184 163 163 97 74 188 183 148 208 219 292 293 278 265 224 179 176 173 172 207 230 239 239 250 273 259 223 220 254 254 261 261 251 272 284 265 233 213 207 202 247 297 311 316 313 313 313 312 314
217 208 278 322 183 167 156 171 208 198 212 229 238 233 232 226 216 229 224 210 219 234 250 220 219 223 225 244 251 217 190 218 207 202 224 224 215 223 223 177 163 157 130 169 223 197 138 126 196 244 245 251 262 254 206 197 212 217 220 224 235 232 220 238 248 238 233 247 245 256 262 240 220 268 272 253 232 241 237 251 284 295 296 298 297 297 298 297
221 235 336 337 181 169 158 224 206 211 234 233 282 263 220 227 238 227 206 206 210 208 229 231 221 231 228 231 241 220 203 216 206 206 227 230 217 218 215 192 164 129 122 250 249 208 109 103 223 252 251 246 261 267 256 230 224 241 235 218 220 226 224 228 237 243 247 247 245 255 257 230 196 251 275 283 284 284 274 255 253 272 281 281 278 283 287 286
311 275 319 291 197 181 175 226 210 228 235 243 273 252 242 236 227 233 221 206 200 194 212 222 219 234 230 218 223 217 211 220 224 225 222 218 231 230 222 215 205 187 194 212 215 214 213 193 214 256 273 267 264 271 274 248 199 225 239 227 225 229 233 239 243 243 249 240 237 251 257 237 227 259 282 291 291 290 287 280 275 281 285 282 276 276 280 282
323 265 255 267 225 207 223 234 229 241 234 245 251 245 258 252 220 234 234 222 209 192 212 250 237 225 226 229 244 236 223 229 245 245 222 219 261 261 249 244 233 221 222 223 203 205 235 218 206 242 257 260 264 260 255 225 192 225 247 236 232 227 226 236 243 239 245 234 226 244 259 251 252 272 281 283 285 287 289 289 288 284 280 282 280 273 279 295
310 277 256 269 245 239 261 258 244 239 236 245 244 237 241 245 247 228 215 222 226 214 234 272 265 259 245 241 257 256 245 238 242 252 251 256 268 315 347 328 286 272 292 304 333 75 257 234 226 237 242 247 259 262 263 280 252 248 252 238 232 225 221 225 232 237 249 255 243 243 255 259 256 260 268 272 276 281 286 288 288 288 281 284 294 316 336 348
247 268 248 261 255 237 245 252 238 229 227 228 234 239 238 243 256 236 208 222 226 219 241 252 225 226 229 228 242 248 246 243 244 249 256 263 285 319 334 349 359 349 344 340 351 117 232 251 238 241 246 248 259 268 274 278 269 260 261 258 255 255 244 236 243 247 253 264 261 250 252 258 253 248 258 266 269 273 277 282 290 305 331 342 7 31 26 18
234 269 280 292 282 239 242 265 287 272 249 237 239 255 253 250 247 234 225 265 246 210 224 246 231 228 232 239 245 248 250 252 254 255 258 312 358 335 335 350 36 31 30 12 352 74 219 256 244 246 254 254 258 264 264 265 266 262 261 261 261 265 263 255 252 251 249 255 263 265 262 262 261 252 252 258 265 272 281 293 313 345 14 29 37 36 27 17
296 285 294 320 308 277 292 309 325 316 273 261 253 236 244 249 246 243 245 337 298 230 220 237 240 227 242 252 239 232 244 250 257 268 65 36 355 325 331 310 336 60 41 1 335 281 233 259 256 257 264 264 260 262 263 264 267 267 264 260 259 260 259 258 258 258 258 260 264 268 265 263 268 271 270 278 294 305 325 351 13 25 29 33 32 27 21 14
328 316 315 343 311 277 302 302 299 309 288 275 263 235 240 248 249 253 249 210 242 262 235 236 234 84 74 78 190 234 232 218 247 237 78 38 339 346 4 292 306 353 351 335 306 270 266 299 319 304 290 281 273 268 267 268 269 269 268 265 263 262 260 261 264 267 268 267 264 265 264 265 287 310 320 358 10 8 14 23 30 30 24 25 25 19 13 6
254 326 319 316 293 270 283 321 285 287 272 244 243 259 265 261 261 282 296 225 226 284 162 124 39 31 123 137 192 213 159 98 174 232 212 194 247 259 209 252 305 321 315 292 236 281 289 297 316 310 287 279 279 272 270 275 277 273 271 268 266 265 264 261 260 260 262 268 269 269 271 286 344 348 355 19 20 14 14 19 24 22 19 20 18 11 5 360
238 325 316 241 275 267 261 326 295 266 261 248 287 322 288 284 1 360 302 345 72 83 95 84 29 1 59 287 263 154 144 161 209 226 230 219 226 232 226 231 237 244 269 278 261 249 251 268 291 286 279 280 279 279 287 295 287 273 267 266 262 260 264 267 266 268 278 291 285 278 297 353 359 0 1 4 6 2 357 6 23 17 13 13 10 4 358 352
Height
837 836 836 835 834 834 833 832 832 831 830 829 829 828 827 826 825 825 824 822 822 821 820 819 818 817 816 816 815 815 814 813 812 813 811 807 806 808 808 808 809 809 810 811 811 812 813 814 815 815 816 817 820 820 820 821 821 824 832 838 837 838 834 822 819 816 813 808 804 803 804 805 803 799 797 797 796 795 795 793 791 789 787 787 786 785 785 785
836 836 835 835 834 833 833 832 831 831 830 829 829 828 827 826 825 824 823 823 822 820 820 819 818 817 816 815 815 814 813 812 812 811 807 804 805 806 807 807 808 808 809 810 810 811 812 814 814 815 817 819 821 821 821 822 822 826 836 839 833 829 822 814 812 810 809 807 804 804 805 806 803 800 799 798 796 795 795 792 792 790 786 786 786 786 786 786
836 835 835 834 833 833 832 831 831 830 829 828 828 827 827 826 825 824 823 822 821 820 820 818 818 816 816 815 814 814 813 812 811 808 804 803 804 804 805 806 807 808 808 809 810 810 811 812 813 816 819 821 822 822 822 822 823 826 833 835 826 819 816 812 811 808 806 806 805 805 806 806 802 800 800 798 796 794 792 790 791 790 784 781 784 786 786 786
835 835 834 833 833 832 831 830 830 829 828 828 827 827 826 825 825 824 822 822 821 820 819 818 818 816 816 814 814 814 811 813 810 805 803 803 803 803 804 805 806 807 808 809 809 811 811 811 813 816 820 822 823 824 823 821 822 825 828 825 818 817 816 807 806 806 805 807 807 804 806 805 799 800 799 796 798 790 783 784 785 783 779 777 782 785 785 786
835 834 833 833 832 831 830 830 829 828 827 827 826 826 825 825 824 823 822 822 821 820 819 818 817 816 816 814 815 813 813 818 810 802 804 803 803 803 803 804 806 806 807 808 809 810 811 811 813 817 820 822 824 824 821 818 820 823 821 815 813 817 814 802 802 805 804 806 806 804 805 801 798 798 795 796 799 784 773 778 777 775 774 773 778 781 783 784
834 833 833 832 831 831 830 829 828 827 826 826 825 825 824 824 823 822 822 821 821 820 819 818 817 817 816 814 815 813 817 820 807 802 804 803 803 803 803 804 805 806 807 808 809 810 811 812 814 818 820 820 822 820 818 817 819 820 816 812 810 813 810 801 801 803 804 806 804 804 802 799 798 795 792 793 790 773 766 773 773 771 771 770 773 778 780 781
833 833 832 831 831 830 829 828 827 826 825 825 824 823 823 822 822 821 820 820 820 819 818 818 817 817 816 815 815 814 818 815 802 803 804 802 803 802 803 804 805 806 807 808 808 809 811 813 815 817 819 819 819 817 816 816 817 819 815 810 808 808 807 801 801 802 804 804 801 803 801 799 798 794 791 788 777 767 767 770 769 769 769 770 772 774 775 775
833 832 832 831 830 829 828 827 826 826 825 824 823 822 822 821 821 820 819 819 818 818 817 817 817 816 816 815 815 817 818 809 801 803 802 802 803 802 803 803 804 805 805 806 806 808 811 813 814 816 817 817 816 816 815 816 818 818 814 809 807 806 804 801 802 803 802 802 801 802 799 794 794 795 790 780 768 763 766 767 766 768 768 770 769 769 772 771
832 831 831 830 829 828 827 827 826 825 824 823 822 821 821 820 819 819 818 817 816 817 816 816 816 814 815 815 816 819 813 804 801 802 801 802 801 801 802 802 803 804 804 805 806 808 810 811 811 812 814 814 815 814 814 816 816 813 809 808 806 804 801 800 800 800 800 799 799 800 796 789 790 794 785 770 763 761 764 765 764 766 767 766 766 767 769 769
831 830 830 829 828 827 826 826 824 823 823 822 821 820 820 819 818 818 817 816 815 815 815 815 814 814 815 813 817 818 806 800 802 801 801 801 800 801 801 801 802 802 804 805 805 806 807 808 808 808 811 812 814 814 814 815 812 809 809 807 805 804 801 799 798 797 799 796 795 797 793 786 790 795 781 761 759 762 761 763 763 765 764 763 764 765 766 766
831 830 829 828 827 826 825 824 823 822 822 821 820 819 818 818 817 816 816 815 814 814 814 813 813 814 813 813 817 813 800 799 801 799 800 800 799 800 800 801 801 802 803 804 804 805 805 806 806 808 810 812 812 813 813 810 808 808 809 806 802 803 800 795 795 796 797 794 790 793 792 788 792 794 777 757 757 762 762 762 762 763 762 761 762 762 764 763
830 829 828 827 826 825 824 823 822 821 820 819 819 817 817 816 815 815 814 814 813 813 813 812 813 812 813 813 811 803 797 798 798 798 799 798 798 798 799 800 800 801 802 803 804 803 805 806 805 808 810 811 812 813 810 808 809 808 809 809 802 803 798 787 789 793 793 791 786 792 795 791 789 781 765 756 758 761 764 761 759 760 759 759 759 760 760 757
830 829 828 827 826 824 824 822 821 820 819 818 817 816 815 814 814 813 812 812 811 812 811 811 812 812 814 811 800 796 796 796 796 796 796 796 797 797 798 799 799 801 802 803 804 803 805 805 806 808 808 810 812 811 809 809 811 807 810 812 807 809 800 783 787 792 791 791 786 791 797 788 778 768 757 757 759 761 764 760 756 756 755 755 756 756 755 753
829 828 827 826 825 824 823 822 820 819 817 817 815 814 813 812 812 810 810 810 809 810 810 811 811 812 814 806 794 794 795 794 794 793 793 794 795 795 796 798 799 800 801 802 803 803 804 804 806 808 808 810 809 808 810 813 812 810 813 814 815 817 801 783 789 795 791 789 784 789 797 786 770 762 755 756 759 762 762 758 755 754 752 752 751 752 751 748
829 828 827 825 825 824 822 821 819 818 816 815 813 812 811 810 809 808 808 807 808 809 808 810 810 811 814 804 792 793 793 792 791 789 791 792 792 794 795 796 798 799 800 801 802 803 804 804 806 808 809 808 808 811 816 817 813 815 817 816 820 821 807 790 788 790 787 785 787 790 792 784 771 760 754 756 758 760 760 755 753 752 751 749 748 748 747 742
828 828 826 825 824 823 822 821 819 817 816 814 812 810 808 807 806 805 805 805 806 807 808 810 809 811 813 803 793 792 791 789 787 787 789 790 790 793 794 796 797 798 800 801 802 803 803 804 807 810 809 808 811 815 821 823 819 820 823 819 818 818 814 803 786 781 783 784 787 787 783 778 767 757 753 756 757 758 759 754 751 751 749 748 747 745 743 739
828 827 826 825 824 823 822 820 818 817 815 813 810 808 806 805 803 803 803 804 805 806 808 809 809 811 808 798 794 791 786 786 785 786 787 787 790 792 793 796 797 798 799 800 802 803 803 806 809 811 811 812 815 817 825 832 826 820 823 823 819 815 814 808 789 778 783 785 785 785 783 775 763 756 754 755 756 758 758 753 749 749 748 747 746 744 740 736
828 827 826 825 824 823 822 820 818 816 814 812 809 806 805 803 802 802 803 804 805 808 810 809 811 815 806 794 791 787 783 784 784 785 785 786 789 791 793 795 797 798 800 802 803 803 806 809 812 813 813 814 816 819 826 827 818 813 815 815 816 815 813 811 797 780 779 782 784 788 786 776 767 762 759 755 755 757 755 752 748 747 746 743 742 740 736 732
828 827 826 825 824 823 822 820 818 816 813 810 808 806 804 804 803 803 804 804 805 805 807 806 805 807 800 789 786 784 783 784 784 784 785 786 789 791 793 794 797 799 802 806 805 804 807 811 816 818 814 810 811 815 815 808 803 804 808 808 809 810 807 805 795 782 779 782 785 788 781 772 769 766 760 754 752 754 751 748 745 743 742 739 737 734 730 727
827 826 826 825 824 823 821 820 818 816 813 810 807 804 804 807 805 804 806 805 803 799 799 799 796 794 790 786 784 784 784 784 784 784 785 786 788 791 794 795 798 801 803 805 805 806 808 812 816 812 804 800 802 805 801 796 799 805 809 810 809 810 804 796 790 780 782 786 779 778 773 767 766 762 757 751 750 751 747 742 739 737 736 734 732 727 722 721
826 825 825 824 824 823 821 820 818 816 814 811 808 806 809 813 811 809 809 803 797 795 795 794 793 790 785 783 783 783 784 784 783 785 786 786 788 791 794 797 801 804 805 805 807 809 809 812 812 800 790 791 796 799 799 801 805 807 810 811 811 812 801 790 787 779 782 788 777 773 771 764 761 758 753 751 750 748 742 737 732 729 729 729 726 721 715 712
825 824 824 824 823 822 821 820 819 817 815 813 811 811 814 816 814 814 813 806 796 792 793 790 791 790 782 780 782 783 786 785 783 784 786 787 789 791 793 797 801 803 806 808 807 810 813 813 806 794 789 794 796 799 804 807 808 809 812 815 812 810 799 787 784 780 784 788 777 774 771 758 756 754 749 748 744 739 735 732 728 724 724 723 719 714 709 706
824 823 824 823 822 823 821 820 819 817 816 814 814 815 816 815 815 815 816 813 801 790 788 785 785 785 781 778 779 783 787 785 783 783 784 787 790 792 793 797 802 803 806 805 802 805 809 805 797 793 796 799 798 800 804 806 808 809 810 812 808 803 799 788 782 782 787 788 779 777 770 753 752 750 744 742 734 730 730 727 725 722 719 715 710 707 706 703
823 823 823 822 823 822 821 821 819 818 817 816 816 816 815 815 815 816 815 811 802 790 782 779 780 780 777 776 777 780 784 783 781 781 781 784 790 793 793 795 802 804 803 799 796 796 795 791 790 794 798 800 800 801 804 805 804 801 803 806 800 794 795 789 785 786 788 786 780 781 766 738 736 744 736 732 729 728 728 725 722 718 711 707 704 703 704 701
822 822 822 822 823 821 821 821 819 819 818 817 817 816 816 816 814 816 816 810 801 789 779 776 778 776 773 774 776 778 781 781 778 778 779 781 784 789 791 793 795 798 798 798 800 797 791 788 788 793 797 800 801 801 803 804 798 792 795 797 788 784 789 789 790 794 793 789 783 786 773 734 721 734 732 725 728 728 725 725 721 712 703 703 704 701 700 698
821 821 821 822 822 822 822 820 819 820 818 818 818 816 817 816 815 816 815 812 800 783 776 776 776 773 771 774 776 776 780 780 777 777 778 779 779 782 788 791 789 791 793 795 799 796 789 786 785 789 793 797 804 804 799 799 797 791 787 784 781 786 791 790 794 797 795 791 788 789 786 757 726 723 727 723 725 723 719 720 716 706 700 702 704 698 694 695
819 819 820 820 821 822 822 820 820 819 818 819 817 817 817 814 817 815 812 815 799 774 772 776 774 772 771 774 774 775 780 780 777 779 779 780 779 779 785 788 788 788 788 793 796 788 783 785 786 788 791 797 804 799 789 792 797 789 781 777 777 784 788 790 794 798 796 793 792 787 787 784 749 717 718 718 718 719 716 714 709 701 700 699 699 695 693 692
817 818 818 819 819 820 821 820 820 819 819 819 817 818 816 814 817 812 815 823 795 765 769 773 771 770 770 773 774 774 780 779 778 780 779 780 781 780 784 785 785 785 785 789 790 782 778 781 784 786 793 797 793 783 779 788 791 783 784 784 782 784 787 790 791 795 802 796 793 790 786 791 761 718 717 724 721 722 714 708 702 698 699 696 693 692 691 689
815 815 816 817 818 818 819 819 819 819 819 818 818 818 815 816 815 811 826 827 785 761 770 770 769 772 772 775 776 775 779 778 778 780 780 781 780 781 785 784 784 784 783 785 783 778 778 779 781 783 787 786 779 777 779 782 783 783 789 788 788 791 790 794 791 789 799 792 787 792 786 784 757 715 718 730 725 720 710 705 704 700 699 695 691 690 688 687
813 813 814 815 816 817 817 817 817 817 818 818 818 816 814 815 815 821 833 815 778 769 774 770 772 776 775 777 779 778 779 778 780 781 780 782 780 780 784 784 784 784 785 786 781 777 777 782 784 780 776 774 773 783 788 784 784 786 788 784 786 791 789 796 795 789 796 788 777 779 775 779 760 718 715 723 715 712 706 702 703 698 695 692 689 688 685 684
810 811 812 812 813 815 815 816 815 815 817 817 817 817 815 815 821 830 820 792 778 777 773 774 779 778 778 781 780 779 779 777 779 781 780 783 784 783 785 785 785 788 788 786 781 777 778 781 780 771 770 773 773 781 790 790 789 786 785 784 785 789 790 796 798 796 799 783 767 767 769 777 759 719 712 716 710 710 706 699 696 692 689 687 687 688 685 683
808 809 809 810 810 811 813 814 813 814 815 816 818 817 817 822 826 820 801 784 783 779 772 778 781 778 782 783 779 779 781 778 778 780 780 784 786 784 784 782 781 785 784 781 778 774 771 770 769 767 769 770 768 776 787 789 788 787 788 790 793 797 796 796 798 800 796 776 766 773 776 771 743 711 710 712 704 703 703 700 695 690 687 683 684 687 686 685
807 807 807 807 807 808 810 811 813 814 814 816 818 817 822 828 816 800 794 789 783 775 773 778 779 780 782 780 777 779 781 777 777 781 781 786 790 784 783 782 779 779 779 781 780 772 764 762 767 769 766 764 765 772 778 777 782 788 786 787 795 799 799 796 795 797 788 770 770 781 778 761 732 709 706 702 695 696 698 699 696 692 691 687 687 691 688 685
805 805 805 805 805 805 807 810 811 813 814 816 818 820 825 821 800 789 793 790 779 774 775 779 781 781 780 778 777 777 777 773 774 781 782 786 790 784 780 782 782 780 779 784 783 777 772 764 760 760 756 758 760 759 759 762 774 781 775 776 783 781 783 785 779 775 767 759 771 784 772 749 726 709 702 698 696 697 697 697 698 697 696 693 691 691 687 683
803 803 803 803 803 803 805 807 809 811 814 815 819 823 819 805 791 789 791 785 781 778 777 778 780 782 781 779 778 776 773 773 776 781 782 784 785 780 775 776 779 781 781 784 781 779 778 764 752 754 755 757 757 751 752 758 768 776 774 774 773 766 764 767 761 756 758 762 767 770 758 736 717 703 699 701 699 696 695 696 699 696 693 693 692 690 689 688
801 801 801 800 800 801 803 805 808 810 812 815 820 818 805 791 786 787 784 780 779 778 779 780 779 781 782 778 777 777 774 776 780 780 781 784 782 779 776 773 775 776 774 776 773 771 775 761 750 758 761 760 761 757 755 757 760 772 777 769 762 759 757 760 760 756 766 770 755 744 740 728 715 702 694 698 698 694 694 695 696 695 693 694 692 690 691 691
800 799 799 797 797 799 801 803 806 809 811 815 816 805 790 783 781 779 778 777 777 776 779 784 779 777 780 778 777 778 775 777 781 779 781 783 777 773 774 770 771 772 766 767 769 768 772 763 751 755 760 761 767 765 759 760 761 766 770 762 757 761 760 764 771 767 768 767 746 731 728 723 722 711 696 697 697 691 692 695 694 693 694 693 688 688 691 691
798 798 796 793 794 796 798 802 804 807 811 812 806 794 784 781 777 775 775 775 776 775 779 784 778 774 778 779 774 773 774 776 780 781 783 782 774 768 767 765 767 769 764 766 771 769 772 771 757 753 760 763 766 765 761 763 765 764 763 761 761 765 763 765 773 770 765 761 747 735 727 722 722 711 697 697 696 689 691 695 692 689 692 693 691 690 691 691
798 799 795 788 789 792 795 799 801 806 809 806 800 790 782 778 776 775 774 773 775 778 779 779 777 774 775 775 773 772 773 775 777 779 779 779 773 764 761 762 764 766 763 766 772 768 770 779 770 756 760 766 763 763 763 761 763 764 764 763 764 765 762 762 763 760 756 752 745 737 730 720 709 699 695 695 692 690 693 694 693 693 695 696 694 692 690 689
797 799 793 785 786 789 793 798 801 804 803 796 790 785 779 777 776 774 773 773 774 776 777 776 776 777 774 772 772 771 773 775 775 776 775 772 768 762 758 760 761 763 765 767 770 769 771 781 779 765 763 767 763 760 760 757 758 762 764 763 764 762 760 761 759 754 751 749 745 741 735 720 703 694 694 693 691 693 696 694 694 695 695 693 691 689 688 688
798 799 792 785 786 789 792 798 799 798 795 788 782 779 777 776 774 773 773 774 773 772 774 775 774 774 773 771 772 772 774 775 773 775 774 769 768 764 757 756 756 759 767 769 768 768 769 776 781 776 770 766 760 755 756 755 756 759 761 760 759 758 760 765 761 750 748 749 745 743 739 725 707 695 691 692 695 695 696 695 694 693 692 690 688 689 689 690
798 797 790 786 787 788 791 795 793 791 790 784 778 775 775 773 772 773 773 773 775 773 773 774 772 771 771 770 770 771 772 772 771 773 771 766 765 762 755 753 754 755 762 766 764 762 766 775 780 776 769 763 755 750 753 754 755 758 759 756 755 755 758 763 760 749 746 746 741 741 739 724 706 695 689 690 694 694 694 695 694 694 694 694 693 693 694 693
796 793 788 787 788 787 789 790 788 787 785 779 775 774 774 773 772 772 772 773 774 773 773 773 771 770 769 767 768 769 770 770 767 766 766 763 760 757 753 753 755 757 760 762 761 760 766 775 775 765 761 759 755 751 752 755 758 760 755 751 750 747 744 745 744 741 741 742 740 740 736 719 703 695 691 689 690 691 691 691 693 695 695 695 695 694 693 691
797 794 790 789 788 788 787 783 781 782 781 779 778 776 774 773 772 771 772 773 772 771 772 770 768 767 766 764 765 765 766 767 763 759 760 761 758 753 752 753 755 758 758 756 755 757 762 765 765 764 763 759 755 753 751 752 757 755 747 742 741 738 737 737 738 741 740 736 737 737 730 717 705 700 698 695 690 688 685 686 689 692 692 692 693 692 691 690
800 796 791 789 788 787 783 777 777 779 779 778 778 776 775 773 769 768 769 770 769 768 769 768 767 766 765 765 766 765 765 766 765 759 756 758 757 753 755 756 755 754 754 753 753 756 758 755 756 763 765 759 752 745 740 741 746 746 741 738 736 736 737 737 738 742 737 728 728 728 721 713 707 705 703 700 694 689 684 681 682 687 690 690 690 692 691 692
803 798 793 791 789 787 783 778 779 780 778 778 776 774 773 771 767 765 767 768 767 766 768 769 769 769 769 770 771 770 767 767 768 763 759 758 756 757 762 762 759 758 756 756 758 761 763 757 751 753 752 748 742 735 731 733 737 739 737 734 733 733 733 733 734 734 730 723 719 716 714 713 711 710 706 701 696 693 686 680 677 683 689 689 692 697 700 702
804 801 795 792 789 787 784 780 780 780 777 777 775 770 768 768 766 765 766 766 764 764 767 769 769 769 769 768 769 768 764 764 767 765 763 763 761 763 765 762 762 764 760 760 764 766 768 762 753 749 746 742 738 733 732 734 734 735 736 734 735 735 733 734 732 725 722 721 714 707 709 710 708 708 705 699 696 692 687 682 677 680 689 695 701 707 710 712
804 801 795 792 792 788 784 783 784 783 779 777 774 770 768 768 768 767 766 765 764 765 768 769 768 766 765 764 766 768 765 763 765 764 765 772 776 774 769 765 767 770 767 768 768 768 770 764 752 749 748 743 741 738 734 733 732 732 736 738 738 737 735 733 727 718 718 719 710 704 705 703 701 701 699 694 691 688 686 687 687 694 704 711 714 716 717 717
802 801 796 794 795 793 790 790 790 788 784 780 776 772 769 768 767 765 765 765 766 767 766 766 766 767 769 768 768 771 769 767 769 770 775 784 786 782 778 773 770 771 773 776 773 769 769 761 750 750 750 745 743 740 736 736 735 734 736 737 736 734 731 726 718 713 715 711 705 705 706 700 697 699 697 697 699 699 701 705 710 717 722 722 722 722 722 721
802 802 800 799 798 796 795 795 792 790 787 783 780 774 769 767 766 764 764 766 767 767 765 766 771 774 776 775 775 776 774 773 775 777 783 789 786 784 786 782 775 774 777 778 775 770 768 761 753 756 758 751 744 742 742 742 741 738 734 731 730 728 724 719 716 714 713 708 704 705 703 701 708 716 716 718 721 720 721 725 728 731 730 728 728 728 727 725
801 802 802 804 802 796 795 796 794 793 788 783 779 773 769 769 769 768 768 766 767 769 771 776 780 780 779 779 779 780 780 781 783 782 784 789 786 784 786 783 780 781 778 775 774 772 771 767 761 763 763 752 742 742 742 741 742 741 736 729 726 723 719 716 714 711 709 707 704 702 707 720 734 738 732 731 734 733 733 735 735 734 733 732 732 731 729 728
801 802 802 804 803 796 796 799 798 795 789 781 779 777 775 775 776 774 772 770 772 775 778 781 782 780 781 781 779 781 782 783 784 783 782 784 782 781 782 780 780 782 778 774 773 772 771 770 768 767 763 751 742 740 739 742 745 739 729 722 716 713 712 711 710 713 716 719 719 721 735 748 752 747 741 739 740 740 738 738 738 736 735 733 733 733 732 730